Satellite: NO-45
Catalog number: 26932
Epoch time:      06276.94878179
Element set:    0427
Inclination:      067.0532 deg
RA of node:       087.2544 deg
Eccentricity:    0.0006202
Arg of perigee:   233.3929 deg
Mean anomaly:     126.6599 deg
Mean motion:   14.29536144 rev/day
Decay rate:       -4.4e-07 rev/day^2
Epoch rev:           26151
Checksum:              324

Satellite: UWE-1
Catalog number: 28892
Epoch time:      06278.72002211
Element set:     568
Inclination:      098.1494 deg
RA of node:       175.0701 deg
Eccentricity:    0.0017172
Arg of perigee:   183.1793 deg
Mean anomaly:     176.9292 deg
Mean motion:   14.59402109 rev/day
Decay rate:       1.37e-06 rev/day^2
Epoch rev:            5009
Checksum:              299

Satellite: CO-58
Catalog number: 28895
Epoch time:      06276.71905975
Element set:    0553
Inclination:      098.1508 deg
RA of node:       173.2224 deg
Eccentricity:    0.0017385
Arg of perigee:   189.9265 deg
Mean anomaly:     170.1603 deg
Mean motion:   14.59452147 rev/day
Decay rate:       3.02e-06 rev/day^2
Epoch rev:           04968
Checksum:              340

Satellite: NCUBE2
Catalog number: 28897
Epoch time:      06276.47911192
Element set:    0130
Inclination:      098.1512 deg
RA of node:       172.9649 deg
Eccentricity:    0.0017078
Arg of perigee:   191.7740 deg
Mean anomaly:     168.3061 deg
Mean motion:   14.59607660 rev/day
Decay rate:       1.34e-06 rev/day^2
Epoch rev:           04192
Checksum:              313

/EX




_______________________________________________
Via the Keps mailing list courtesy of AMSAT-NA
Keps@amsat.org
http://amsat.org/mailman/listinfo/keps

--- ViaMAIL!/WC v1.60d
 * Origin: Chowdanet (401-724-4410) telnet://chowdanet.com  (1:323/120)